When you browse on this site, cookies collect data to enhance your experience and personalize the content and advertising you see.
Visit our Privacy Policy to learn more. By continuing to use the site, you agree to this use of cookies and data.
  • In United Kingdom
  • List of Countries
  • For 7 days
  • Water Temperature
  • Weather Map
  • Weather Widgets
  • user-avatar
    Login

    Hourly Weather Karlsruhe

    Today, 21 August, Wednesday

    Time Temperature Precipitation Wind Pressure Humidity
    00:00 +15°C° 0 mm 2 mps 760 mmHg 88%
    01:00 +14°C° 0 mm 1 mps 760 mmHg 87%
    02:00 +14°C° 0 mm 1 mps 760 mmHg 87%
    03:00 +13°C° 0 mm 1 mps 760 mmHg 87%
    04:00 +13°C° 0 mm 1 mps 760 mmHg 87%
    05:00 +14°C° 0 mm 1 mps 760 mmHg 85%
    06:00 +14°C° 0 mm 0 mps 760 mmHg 83%
    07:00 +14°C° 0 mm 0 mps 760 mmHg 81%
    08:00 +18°C° 0 mm 1 mps 760 mmHg 73%
    09:00 +20°C° 0 mm 1 mps 760 mmHg 65%
    10:00 +22°C° 0 mm 1 mps 760 mmHg 57%
    11:00 +23°C° 0 mm 2 mps 760 mmHg 52%
    12:00 +24°C° 0 mm 2 mps 760 mmHg 48%
    13:00 +25°C° 0 mm 2 mps 759 mmHg 43%
    14:00 +25°C° 0 mm 3 mps 759 mmHg 43%
    15:00 +25°C° 0 mm 3 mps 759 mmHg 43%
    16:00 +26°C° 0 mm 3 mps 758 mmHg 43%
    17:00 +24°C° 0 mm 3 mps 758 mmHg 49%
    18:00 +22°C° 0 mm 3 mps 758 mmHg 56%
    19:00 +20°C° 0 mm 3 mps 758 mmHg 62%
    20:00 +19°C° 0 mm 2 mps 758 mmHg 64%
    21:00 +18°C° 0 mm 2 mps 758 mmHg 66%
    22:00 +18°C° 0 mm 1 mps 758 mmHg 68%
    23:00 +18°C° 0 mm 1 mps 758 mmHg 70%

    Tomorrow, 22 August, Thursday

    Time Temperature Precipitation Wind Pressure Humidity
    00:00 +16°C° 0 mm 1 mps 758 mmHg 71%
    01:00 +16°C° 0 mm 2 mps 758 mmHg 73%
    02:00 +15°C° 0 mm 2 mps 758 mmHg 76%
    03:00 +15°C° 0 mm 2 mps 758 mmHg 78%
    04:00 +15°C° 0 mm 2 mps 758 mmHg 81%
    05:00 +15°C° 0 mm 2 mps 758 mmHg 81%
    06:00 +16°C° 0 mm 2 mps 758 mmHg 80%
    07:00 +16°C° 0 mm 2 mps 758 mmHg 80%
    08:00 +18°C° 0 mm 2 mps 758 mmHg 73%
    09:00 +20°C° 0 mm 3 mps 758 mmHg 67%
    10:00 +22°C° 0 mm 3 mps 758 mmHg 61%
    11:00 +25°C° 0 mm 3 mps 758 mmHg 57%
    12:00 +26°C° 0 mm 3 mps 757 mmHg 53%
    13:00 +27°C° 0 mm 3 mps 757 mmHg 48%
    14:00 +27°C° 0 mm 3 mps 757 mmHg 48%
    15:00 +27°C° 0 mm 3 mps 757 mmHg 49%
    16:00 +28°C° 0 mm 3 mps 757 mmHg 49%
    17:00 +26°C° 0 mm 3 mps 757 mmHg 55%
    18:00 +25°C° 0 mm 3 mps 757 mmHg 61%
    19:00 +23°C° 0 mm 2 mps 757 mmHg 68%
    20:00 +21°C° 0 mm 2 mps 757 mmHg 71%
    21:00 +20°C° 0 mm 2 mps 757 mmHg 74%
    22:00 +20°C° 0 mm 1 mps 757 mmHg 77%
    23:00 +19°C° 0 mm 1 mps 757 mmHg 78%

    Day after tomorrow, 23 August, Friday

    Time Temperature Precipitation Wind Pressure Humidity
    00:00 +19°C° 0 mm 1 mps 757 mmHg 79%
    01:00 +18°C° 0 mm 1 mps 757 mmHg 80%
    02:00 +18°C° 0 mm 1 mps 757 mmHg 81%
    03:00 +18°C° 0 mm 1 mps 757 mmHg 82%
    04:00 +16°C° 0 mm 1 mps 757 mmHg 84%
    05:00 +17°C° 0 mm 2 mps 757 mmHg 82%
    06:00 +17°C° 0 mm 2 mps 757 mmHg 81%
    07:00 +18°C° 0 mm 2 mps 757 mmHg 80%
    08:00 +20°C° 0 mm 2 mps 757 mmHg 73%
    09:00 +23°C° 0 mm 2 mps 757 mmHg 67%
    10:00 +25°C° 0 mm 3 mps 757 mmHg 61%
    11:00 +26°C° 0 mm 3 mps 756 mmHg 57%
    12:00 +27°C° 0 mm 3 mps 756 mmHg 53%
    13:00 +28°C° 0 mm 3 mps 756 mmHg 49%
    14:00 +28°C° 0 mm 3 mps 756 mmHg 48%
    15:00 +29°C° 0 mm 3 mps 755 mmHg 47%
    16:00 +29°C° 0 mm 4 mps 755 mmHg 46%
    17:00 +27°C° 0 mm 3 mps 755 mmHg 52%
    18:00 +25°C° 0 mm 3 mps 755 mmHg 57%
    19:00 +24°C° 0 mm 2 mps 755 mmHg 63%
    20:00 +23°C° 0 mm 2 mps 755 mmHg 66%
    21:00 +21°C° 0 mm 1 mps 755 mmHg 68%
    22:00 +20°C° 0 mm 1 mps 755 mmHg 71%
    23:00 +20°C° 0 mm 1 mps 755 mmHg 72%

    24 August, Saturday

    Time Temperature Precipitation Wind Pressure Humidity
    00:00 +20°C° 0 mm 1 mps 755 mmHg 73%
    01:00 +19°C° 0 mm 1 mps 754 mmHg 74%
    02:00 +19°C° 0 mm 1 mps 754 mmHg 75%
    03:00 +19°C° 0 mm 1 mps 754 mmHg 77%
    04:00 +18°C° 0 mm 1 mps 754 mmHg 78%
    05:00 +19°C° 0 mm 1 mps 754 mmHg 78%
    06:00 +20°C° 0 mm 1 mps 754 mmHg 77%
    07:00 +20°C° 0 mm 1 mps 754 mmHg 77%
    08:00 +21°C° 0 mm 2 mps 754 mmHg 71%
    09:00 +24°C° 0 mm 2 mps 754 mmHg 64%
    10:00 +26°C° 0 mm 2 mps 754 mmHg 58%
    11:00 +27°C° 0 mm 2 mps 754 mmHg 55%
    12:00 +28°C° 0 mm 2 mps 754 mmHg 52%
    13:00 +29°C° 0 mm 2 mps 753 mmHg 49%
    14:00 +29°C° 0 mm 2 mps 753 mmHg 50%
    15:00 +30°C° 0 mm 2 mps 753 mmHg 50%
    16:00 +30°C° 0 mm 2 mps 752 mmHg 50%
    17:00 +29°C° 0 mm 2 mps 752 mmHg 57%
    18:00 +27°C° 0 mm 2 mps 752 mmHg 64%
    19:00 +26°C° 0 mm 2 mps 752 mmHg 70%
    20:00 +25°C° 0 mm 1 mps 752 mmHg 74%
    21:00 +24°C° 0 mm 1 mps 753 mmHg 78%
    22:00 +23°C° 0 mm 1 mps 753 mmHg 82%
    23:00 +22°C° 0 mm 1 mps 753 mmHg 84%

    25 August, Sunday

    Time Temperature Precipitation Wind Pressure Humidity
    00:00 +22°C° 0 mm 1 mps 752 mmHg 85%
    01:00 +22°C° 0 mm 1 mps 752 mmHg 86%
    02:00 +21°C° 0 mm 1 mps 752 mmHg 87%
    03:00 +21°C° 0 mm 1 mps 752 mmHg 88%
    04:00 +19°C° 0 mm 0 mps 752 mmHg 89%
    05:00 +19°C° 0 mm 0 mps 752 mmHg 87%
    06:00 +20°C° 0 mm 0 mps 752 mmHg 85%
    07:00 +20°C° 0 mm 0 mps 752 mmHg 84%
    08:00 +24°C° 0 mm 1 mps 752 mmHg 76%
    09:00 +26°C° 0 mm 1 mps 752 mmHg 69%
    10:00 +28°C° 0 mm 1 mps 753 mmHg 62%
    11:00 +30°C° 0 mm 1 mps 752 mmHg 58%
    12:00 +31°C° 0 mm 1 mps 752 mmHg 54%
    13:00 +32°C° 0 mm 1 mps 752 mmHg 49%
    14:00 +32°C° 0 mm 1 mps 752 mmHg 48%
    15:00 +32°C° 0 mm 1 mps 751 mmHg 46%
    16:00 +32°C° 0 mm 1 mps 751 mmHg 44%
    17:00 +30°C° 0 mm 1 mps 751 mmHg 49%
    18:00 +27°C° 0 mm 0 mps 751 mmHg 55%
    19:00 +25°C° 0 mm 0 mps 751 mmHg 61%
    20:00 +24°C° 0 mm 0 mps 751 mmHg 64%
    21:00 +23°C° 0 mm 0 mps 752 mmHg 67%
    22:00 +22°C° 0 mm 0 mps 752 mmHg 70%
    23:00 +24°C° 0 mm 1 mps 752 mmHg 71%

    26 August, Monday

    Time Temperature Precipitation Wind Pressure Humidity
    00:00 +23°C° 0 mm 1 mps 752 mmHg 73%
    01:00 +23°C° 0 mm 1 mps 752 mmHg 74%
    02:00 +22°C° 0 mm 1 mps 752 mmHg 76%
    03:00 +22°C° 0 mm 1 mps 752 mmHg 77%
    04:00 +21°C° 0 mm 1 mps 751 mmHg 79%
    05:00 +22°C° 0 mm 1 mps 752 mmHg 78%
    06:00 +22°C° 0 mm 1 mps 752 mmHg 77%
    07:00 +23°C° 0 mm 1 mps 752 mmHg 76%
    08:00 +25°C° 0 mm 1 mps 752 mmHg 68%
    09:00 +27°C° 0 mm 1 mps 752 mmHg 60%
    10:00 +29°C° 0 mm 2 mps 752 mmHg 53%
    11:00 +30°C° 0 mm 2 mps 752 mmHg 47%
    12:00 +32°C° 0 mm 2 mps 752 mmHg 42%
    13:00 +34°C° 0 mm 2 mps 752 mmHg 36%
    14:00 +34°C° 0 mm 3 mps 752 mmHg 36%
    15:00 +34°C° 0 mm 3 mps 752 mmHg 37%
    16:00 +34°C° 0 mm 3 mps 752 mmHg 37%
    17:00 +33°C° 0 mm 3 mps 752 mmHg 44%
    18:00 +30°C° 0 mm 2 mps 752 mmHg 50%
    19:00 +28°C° 0 mm 2 mps 752 mmHg 56%
    20:00 +27°C° 0.2 mm 2 mps 753 mmHg 60%
    21:00 +25°C° 0.2 mm 2 mps 753 mmHg 65%
    22:00 +24°C° 0.2 mm 2 mps 754 mmHg 70%
    23:00 +23°C° 0 mm 2 mps 754 mmHg 72%
    Show more